Location: Newark
(34.6283°N, 36.0776°E)
Time: 05:54:54
(UTC+00:00)

ISS - Visible Passes

Search period start: 16 July 2019 00:00
Search period end: 26 July 2019 00:00
Orbit: 409 x 418 km, 51.6° (Epoch: 16 July)

Date Brightness Start Highest point End Pass type
(mag) Time Alt. Az. Time Alt. Az. Time Alt. Az.
16 Jul -0.9 01:15:58 10° NNW 01:18:35 21° NNE 01:21:11 10° E visible
16 Jul -3.3 17:55:04 10° SSW 17:58:11 38° SE 18:01:19 10° ENE visible
16 Jul -1.0 19:32:26 10° W 19:34:57 20° NNW 19:37:30 10° NNE visible
17 Jul -0.4 00:27:16 10° N 00:29:06 14° NNE 00:30:55 10° ENE visible
17 Jul -3.9 02:02:48 10° NW 02:06:06 71° SW 02:09:22 10° SE visible
17 Jul -1.9 18:42:29 10° WSW 18:45:31 32° NW 18:48:34 10° NNE visible
18 Jul -3.1 01:13:32 10° NW 01:16:48 56° NE 01:20:03 10° ESE visible
18 Jul -3.2 17:52:52 10° WSW 17:56:09 60° NW 17:59:27 10° NE visible
19 Jul -1.8 00:24:27 10° NNW 00:27:26 30° NE 00:30:23 10° E visible
19 Jul -2.5 02:01:26 10° W 02:03:57 20° SW 02:06:28 10° S visible
19 Jul -0.5 18:41:51 10° WNW 18:43:49 15° NNW 18:45:47 10° N visible
19 Jul -1.0 23:35:31 10° NNW 23:37:58 19° NNE 23:40:23 10° E visible
20 Jul -3.5 01:11:56 12° WNW 01:14:45 40° SW 01:17:52 10° SSE visible
20 Jul -1.0 17:51:36 10° W 17:54:18 22° NNW 17:57:00 10° NNE visible
22 Jul -0.3 17:51:35 10° NW 17:52:37 11° NNW 17:53:39 10° N visible
